Location: Newark
(51.5306°N, 0.2243°W)
Time: 04:40:45
(UTC+00:00)

Envisat - Visible Passes

Search period start: 23 September 2019 00:00
Search period end: 03 October 2019 00:00
Orbit: 764 x 766 km, 98.1° (Epoch: 22 September)

Date Brightness Start Highest point End Pass type
(mag) Time Alt. Az. Time Alt. Az. Time Alt. Az.
23 Sep 5.6 19:16:08 10° SW 19:20:03 22° W 19:24:00 10° NW visible
24 Sep 4.4 18:38:09 10° S 18:42:58 42° W 18:47:50 10° NNW visible
25 Sep 6.1 19:43:22 10° WSW 19:45:55 14° W 19:48:29 10° NW visible
26 Sep 5.3 19:04:25 10° SSW 19:08:41 27° W 19:12:59 10° NW visible
27 Sep 4.0 18:26:42 10° S 18:31:39 52° W 18:36:38 10° NNW visible
28 Sep 5.9 19:31:15 10° SW 19:34:29 17° W 19:37:47 10° NW visible
29 Sep 4.9 18:52:47 10° SSW 18:57:19 32° W 19:01:54 10° NNW visible
30 Sep 3.6 18:15:19 10° S 18:20:21 64° WSW 18:25:26 10° NNW visible
01 Oct 5.7 19:19:20 10° SW 19:23:06 21° W 19:26:53 10° NW visible
02 Oct 4.6 18:41:14 10° SSW 18:45:59 39° W 18:50:46 10° NNW visible
